Weather History for Liberia, Costa Rica

Change the Weather History Date:

Wednesday, May 7, 2014

  Actual Average Record
Temperature  
Mean Temperature 84 °F -  
Max Temperature 94 °F 89 °F 96 °F (1998)
Min Temperature 73 °F 76 °F 70 °F (2013)
Cooling Degree Days 18    
Growing Degree Days 34 (Base 50)    
Moisture  
Dew Point 72 °F    
Average Humidity 67    
Maximum Humidity 94    
Minimum Humidity 36    
Precipitation  
Precipitation 0.08 in - - ()
Sea Level Pressure  
Sea Level Pressure 29.87 in    
Wind  
Wind Speed 5 mph ()    
Max Wind Speed 14 mph    
Max Gust Speed -    
Visibility 7.3 miles    
Events Rain , Thunderstorm    
Averages and records for this station are not official NWS values.
T = Trace of Precipitation, MM = Missing Value Source: Averaged Metar Reports

Daily Weather History Graph

Daily Weather History Graph

Search for Another Location

Airport:

Trip Planner

Search our weather history database for the weather conditions in past years. The results will help you decide how hot, cold, wet, or windy it might be!

Date:

Astronomy

May. 07, 2014 Rise Set
Actual Time 5:22 AM CST 5:55 PM CST
Civil Twilight 5:00 AM CST 6:17 PM CST
Nautical Twilight 4:34 AM CST 6:43 PM CST
Astronomical Twilight 4:08 AM CST 7:09 PM CST
Moon 12:12 PM CST (5/7) 12:04 AM CST (5/7)
Length of Visible Light 13h 17m
Length of Day
12h 33m
First Quarter, 56% of the Moon is Illuminated
May 7
First Quarter
May 14
Full
May 21
Last Quarter
May 28
New
Jun 5
First Quarter

Hourly Weather History & Observations

Time (CST) Temp. Heat Index Dew Point Humidity Pressure Visibility Wind Dir Wind Speed Gust Speed Precip Events Conditions
6:00 AM 75 °F - 70 °F 81% 29.89 in 12 mi NE 4.6 mph - -   Clear
6:00 AM 75.2 °F - 69.8 °F 83% 29.86 in - NE 4.6 mph - N/A   Clear
7:00 AM 80.6 °F 84.6 °F 71.6 °F 74% 29.88 in - North 3.5 mph - N/A   Clear
8:00 AM 86.0 °F 91.8 °F 71.6 °F 62% 29.90 in - SSE 4.6 mph - N/A   Clear
9:00 AM 86 °F - 71 °F 53% 29.94 in 12 mi SSW 4.6 mph - -   Clear
9:00 AM 86.0 °F 91.8 °F 71.6 °F 62% 29.91 in - SSW 4.6 mph - N/A   Clear
10:00 AM 89.6 °F 94.7 °F 69.8 °F 52% 29.91 in 6.2 mi SSW 4.6 mph - N/A   Mostly Cloudy
11:00 AM 91.4 °F 96.8 °F 69.8 °F 49% 29.89 in 6.2 mi SW 4.6 mph - N/A   Mostly Cloudy
12:00 PM 92 °F - 69 °F 37% 29.90 in 12 mi South 6.9 mph - -   Overcast
12:00 PM 91.4 °F 96.8 °F 69.8 °F 49% 29.89 in 6.2 mi South 6.9 mph - N/A   Mostly Cloudy
1:00 PM 91.4 °F 96.8 °F 69.8 °F 49% 29.85 in 6.2 mi West 8.1 mph - N/A   Mostly Cloudy
2:00 PM 91.4 °F 98.4 °F 71.6 °F 52% 29.83 in 6.2 mi West 12.7 mph - N/A   Scattered Clouds
3:00 PM 93 °F - 69 °F 36% 29.83 in 2 mi West 13.8 mph - - Rain Light Rain
3:00 PM 93.2 °F 98.8 °F 69.8 °F 46% 29.81 in 6.2 mi West 13.8 mph - N/A Rain Rain
3:20 PM 78.8 °F - 75.2 °F 89% 29.82 in 6.2 mi SE 11.5 mph - N/A Rain , Thunderstorm Thunderstorms and Rain
4:00 PM 78.8 °F - 73.4 °F 83% 29.83 in 6.2 mi SSW 12.7 mph - N/A Rain , Thunderstorm Thunderstorms and Rain
5:00 PM 78.8 °F - 77.0 °F 94% 29.84 in 6.2 mi ESE 5.8 mph - N/A Rain Light Rain
6:00 PM 80 °F - 75 °F 81% 29.88 in 12 mi Calm Calm - -   Partly Cloudy
6:00 PM 80.6 °F 86.2 °F 75.2 °F 84% 29.84 in 6.2 mi Calm Calm - N/A   Mostly Cloudy
7:00 PM 78.8 °F - 77.0 °F 94% 29.86 in 6.2 mi SSE 2.3 mph - N/A   Overcast
8:00 PM 78.8 °F - 75.2 °F 89% 29.89 in 6.2 mi SE 4.6 mph - N/A   Overcast